This is the latest recevied weather packets stored in our database for station/object KE8KMM. If no packets are shown the sender has not sent any weather packets the latest 10 day(s).
| Time | Temp. | Humidity | Pressure | Rain* | Wind** | Luminosity | Snow |
|---|---|---|---|---|---|---|---|
| 1777904992 | 17.22° C | 61% | 1008.6 hPa | 0 mm | - | 701 W/m² | - |
| 1777904689 | 17.22° C | 61% | 1008.5 hPa | 0 mm | - | 678 W/m² | - |
| 1777904386 | 16.67° C | 62% | 1008.7 hPa | 0 mm | - | 658 W/m² | - |
| 1777904083 | 16.11° C | 62% | 1008.6 hPa | 0 mm | - | 627 W/m² | - |
| 1777903779 | 16.11° C | 61% | 1008.6 hPa | 0 mm | - | 645 W/m² | - |
| 1777903476 | 16.11° C | 61% | 1008.6 hPa | 0 mm | - | 592 W/m² | - |
| 1777903172 | 16.11° C | 62% | 1008.6 hPa | 0 mm | - | 566 W/m² | - |
| 1777902869 | 16.11° C | 61% | 1008.9 hPa | 0 mm | - | 520 W/m² | - |
| 1777902566 | 15.56° C | 65% | 1008.8 hPa | 0 mm | - | 419 W/m² | - |
| 1777902263 | 15.56° C | 63% | 1009.2 hPa | 0 mm | - | 498 W/m² | - |
| 1777901961 | 15.56° C | 63% | 1009.1 hPa | 0 mm | - | 475 W/m² | - |
| 1777901658 | 15.56° C | 63% | 1009 hPa | 0 mm | - | 409 W/m² | - |
| 1777901355 | 15° C | 65% | 1009.2 hPa | 0 mm | - | 407 W/m² | - |
| 1777901053 | 15° C | 64% | 1009.2 hPa | 0 mm | - | 382 W/m² | - |
| 1777900750 | 15.56° C | 64% | 1009 hPa | 0 mm | - | 356 W/m² | - |
| 1777900447 | 15° C | 64% | 1009.2 hPa | 0 mm | - | 315 W/m² | - |
| 1777900144 | 14.44° C | 64% | 1009.2 hPa | 0 mm | - | 319 W/m² | - |
| 1777899841 | 13.89° C | 66% | 1009.1 hPa | 0 mm | - | 313 W/m² | - |
| 1777899538 | 13.33° C | 68% | 1009.1 hPa | 0 mm | - | 290 W/m² | - |
| 1777899235 | 13.89° C | 66% | 1009.3 hPa | 0 mm | - | 267 W/m² | - |
| 1777898932 | 13.89° C | 69% | 1009.2 hPa | 0 mm | - | 261 W/m² | - |
| 1777898630 | 13.33° C | 65% | 1009.2 hPa | 0 mm | - | 237 W/m² | - |
| 1777898327 | 13.33° C | 68% | 1009.1 hPa | 0 mm | - | 227 W/m² | - |
| 1777898024 | 12.78° C | 68% | 1009.3 hPa | 0 mm | - | 207 W/m² | - |
| 1777897720 | 12.78° C | 69% | 1009.2 hPa | 0 mm | - | 200 W/m² | - |
* Rain latest hour (hover to see other rain measurements)
** Current wind speed in m/s (hover to see current wind gust speed)